Probability
0 0 0 0 0 0 0 0 0 1 1 0 0 1 2 3 3 2 1 2 3 5 6 7 6 5 4 6 7 8 9 9 6 4 2 1 0 0 0 0 0 0 0 0
0 0 0 0 0 0 0 0 0 1 2 1 0 0 2 3 3 3 2 3 4 5 6 7 8 8 7 7 7 7 9 10 8 4 2 1 0 0 0 0 0 1 1 1
0 0 0 0 0 0 0 0 0 1 2 2 1 1 1 2 3 3 3 3 4 5 6 9 11 13 12 10 8 7 8 10 9 5 2 1 0 0 0 0 1 2 2 2
0 0 0 0 0 0 0 0 0 0 1 2 2 1 1 1 3 3 2 4 5 6 7 11 14 17 17 15 11 8 8 10 9 7 4 2 1 0 1 1 2 3 3 3
0 0 0 0 0 0 0 0 0 0 1 1 1 0 0 1 2 2 3 4 6 6 8 11 14 18 19 17 14 11 12 12 11 9 7 5 4 3 4 4 4 4 4 4
0 0 0 0 0 0 0 0 0 0 0 0 0 0 0 0 1 1 3 5 6 6 7 10 13 18 21 19 17 16 17 17 15 13 10 8 9 10 11 10 8 6 6 6
0 0 0 0 0 0 0 0 0 0 0 0 0 0 0 0 1 1 3 5 6 5 7 9 13 19 24 24 21 21 22 22 21 19 16 15 15 17 17 14 11 8 7 7
0 0 0 0 0 0 0 0 0 0 0 0 0 0 0 0 1 2 4 4 4 4 6 9 13 19 24 25 24 25 25 26 26 25 25 23 21 20 19 17 13 10 8 8
0 0 0 0 0 0 0 0 0 0 0 0 0 0 0 0 1 2 3 4 4 4 6 8 12 16 20 23 25 27 30 31 31 31 30 28 25 21 20 19 15 11 11 11
0 0 0 0 0 0 0 0 0 0 0 0 0 0 0 0 0 1 4 7 8 7 7 8 10 13 17 21 25 29 33 37 37 35 32 29 27 24 21 20 19 16 15 16
0 0 0 0 0 0 0 0 0 0 0 0 0 1 1 1 1 3 6 10 11 11 10 10 11 13 15 20 26 29 33 39 41 40 36 34 33 30 27 26 26 24 23 23
0 0 0 0 0 0 0 0 0 0 0 0 0 1 1 2 4 6 9 12 12 12 12 13 15 16 18 22 26 29 33 39 42 43 43 43 41 37 34 34 33 31 30 32
0 0 0 0 0 0 0 0 0 0 0 0 0 0 1 3 7 10 13 15 15 13 14 17 21 24 25 27 30 31 34 39 41 43 46 47 44 40 38 37 35 34 36 38
0 0 0 0 0 0 0 0 0 0 0 0 0 0 1 5 9 14 17 19 18 17 19 24 28 30 32 35 37 36 37 40 40 40 42 43 41 38 37 35 32 33 37 40
0 0 0 0 0 0 0 0 0 0 0 0 0 1 3 6 11 16 19 22 22 22 25 31 34 36 38 41 42 40 40 42 42 41 41 39 36 35 34 33 31 31 35 37
0 0 0 0 0 0 0 0 0 0 0 0 1 2 4 8 12 17 21 24 26 27 29 33 37 40 43 44 44 43 43 43 45 46 46 42 36 33 32 31 30 30 32 34
0 0 0 0 0 0 0 0 0 0 0 0 1 3 6 10 13 17 21 26 30 31 30 31 35 39 42 43 42 42 43 44 46 48 46 41 35 32 31 30 29 30 31 33
0 0 0 0 0 0 0 0 0 0 0 0 1 3 6 10 13 17 22 27 30 31 30 30 32 36 37 37 37 38 41 43 45 45 42 37 35 34 32 32 32 32 33 36
0 0 0 0 0 0 0 1 1 1 0 1 2 3 7 11 14 18 22 27 30 32 32 32 33 34 35 35 34 34 35 38 40 40 39 38 38 38 35 34 35 36 37 39
0 0 0 0 0 0 0 1 2 1 1 2 3 5 9 13 16 18 20 24 30 34 37 37 35 34 34 33 32 31 31 32 33 34 36 36 38 39 36 34 35 37 39 40
0 0 0 0 0 0 0 1 1 0 1 2 4 7 11 15 17 16 16 19 26 33 36 37 36 33 30 28 28 27 26 25 25 28 31 32 34 36 35 35 35 37 39 40
0 0 0 0 0 0 0 0 0 0 1 3 6 10 13 16 16 13 12 14 20 25 29 32 34 32 27 24 23 23 21 20 21 24 28 31 32 32 33 36 37 37 37 36
0 0 0 0 0 1 0 0 1 1 2 4 7 10 13 15 14 12 11 12 15 19 22 24 28 31 28 24 22 21 20 19 19 21 27 31 31 29 31 34 35 34 33 31
0 0 0 0 0 0 0 0 0 0 1 3 6 8 10 12 12 11 11 12 13 15 16 18 21 26 27 24 22 21 22 21 20 20 23 26 27 27 27 29 28 28 27 26
0 0 0 0 0 0 0 0 0 0 0 2 4 7 8 9 9 10 11 12 13 13 13 14 16 19 22 22 21 21 23 23 22 20 19 21 23 23 22 21 20 19 19 18
0 0 0 0 0 0 0 0 0 0 0 1 4 6 7 8 8 9 10 13 14 13 11 11 12 14 18 19 18 20 23 24 23 20 18 19 20 19 17 17 15 12 11 11
Wind_Speed
7 9 8 6 6 6 6 7 5 1 1 4 5 3 5 8 9 9 10 11 12 12 12 12 13 12 12 12 11 11 11 10 8 7 7 6 6 5 5 5 5 6 5 5
8 10 7 5 4 6 8 8 5 2 1 4 4 4 4 7 9 9 11 12 12 12 12 12 13 13 13 13 12 12 12 11 10 7 6 5 5 5 4 4 5 6 6 6
12 4 3 6 7 8 9 8 6 4 3 6 5 6 7 7 8 9 10 11 12 12 13 14 14 13 13 13 13 12 12 12 11 9 7 6 5 5 5 6 5 6 7 7
10 6 6 8 8 9 8 5 6 6 7 6 7 6 6 8 9 9 10 11 12 12 13 13 14 14 14 13 13 13 13 12 12 11 10 9 7 6 6 5 5 6 7 7
7 7 8 9 7 7 6 3 6 8 9 9 9 9 5 8 8 9 10 11 11 12 13 14 14 14 13 13 12 12 12 12 12 12 11 10 9 7 6 5 5 6 6 7
7 5 6 7 6 5 4 5 5 7 9 11 9 10 7 6 6 6 8 9 10 11 12 12 12 12 12 12 11 11 12 12 12 12 12 11 10 8 7 7 6 6 5 6
10 9 7 7 8 8 9 9 8 9 9 8 4 8 5 1 3 4 5 7 8 9 11 12 12 13 13 13 13 12 12 12 12 13 12 12 11 10 10 9 7 7 6 6
10 9 8 7 9 8 10 11 9 8 8 5 6 8 2 2 2 3 4 5 6 8 9 11 12 12 12 13 13 13 13 12 12 12 12 11 11 9 8 9 8 7 6 5
6 5 5 5 6 8 9 10 9 10 11 10 6 5 4 4 5 4 3 4 5 6 7 9 10 11 12 12 13 13 12 12 12 12 12 11 11 10 9 8 8 7 6 5
6 6 6 5 7 6 8 7 7 10 9 11 9 9 6 6 4 4 4 3 4 4 6 7 8 9 10 11 11 12 12 12 11 11 11 9 10 10 9 8 8 7 6 6
8 8 7 8 9 9 9 9 9 9 9 10 9 4 1 2 3 2 2 2 3 4 5 6 6 7 9 9 10 11 11 11 11 10 10 9 9 9 9 8 8 7 7 7
5 8 8 8 4 5 9 10 11 10 9 10 11 4 3 0 1 1 1 0 1 2 3 4 5 6 7 8 9 10 10 10 10 9 9 9 8 8 8 8 8 8 7 8
2 7 9 10 10 9 9 10 11 11 10 10 12 6 5 2 1 0 0 0 1 2 3 3 4 5 6 6 7 8 9 10 9 9 9 8 8 8 8 8 7 8 8 8
5 8 10 12 6 5 8 9 10 12 12 12 13 10 4 2 2 1 0 0 1 2 2 3 3 3 4 5 6 7 8 8 8 8 8 8 8 8 7 7 7 7 7 7
5 9 9 10 9 9 11 12 12 14 14 14 11 10 6 3 3 2 2 2 2 2 2 2 2 2 3 4 5 6 6 6 6 7 7 7 6 6 6 6 7 7 7 7
4 7 9 11 11 11 14 14 14 15 14 14 14 11 4 3 2 3 2 2 2 2 2 2 1 1 2 3 4 5 6 6 6 6 6 6 6 6 6 7 7 7 8 7
5 7 10 12 10 12 16 14 14 13 12 13 13 8 4 3 3 3 3 3 2 2 2 1 1 1 2 2 2 3 4 5 6 6 5 5 6 6 6 7 7 8 8 7
8 8 8 10 10 16 7 2 7 10 10 9 8 6 5 4 4 3 3 2 2 1 1 1 1 1 1 1 1 1 2 3 4 5 5 6 6 6 6 7 8 8 7 7
9 9 9 10 13 14 9 5 5 8 9 6 6 6 5 4 4 3 2 3 2 1 1 1 0 1 1 1 1 1 1 2 3 4 5 6 6 6 6 7 7 7 7 7
8 9 10 11 13 14 6 1 2 7 10 3 5 5 4 4 7 1 2 3 2 2 1 1 1 1 1 1 1 0 0 2 3 3 4 4 5 6 6 6 6 6 6 7
9 10 13 14 15 11 1 1 4 10 3 2 3 4 4 4 4 4 2 1 1 2 1 1 1 1 1 0 0 0 1 1 3 3 4 4 4 5 6 5 5 5 6 6
9 9 11 11 14 9 4 1 4 5 5 4 3 3 3 2 1 1 1 1 1 1 2 1 1 1 0 0 1 1 2 2 3 4 4 4 4 5 4 5 5 5 5 6
8 7 7 7 5 4 2 4 4 5 5 5 4 4 4 4 3 2 1 1 2 2 2 2 2 1 1 1 1 2 2 3 3 3 4 4 4 4 4 5 5 6 6 5
6 4 8 9 8 6 6 6 6 5 6 6 5 5 6 6 5 4 3 2 3 3 3 3 3 2 2 2 2 3 3 3 3 4 3 3 4 4 4 4 5 5 5 5
8 6 9 12 11 10 8 7 7 7 7 7 6 6 6 6 6 5 4 3 3 3 3 3 3 3 3 3 3 3 3 3 3 3 3 3 3 3 2 3 3 4 3 3
11 11 11 10 8 9 10 9 8 8 8 8 7 7 6 6 5 5 4 4 3 3 4 4 4 4 4 3 3 2 2 2 3 3 3 3 3 2 3 3 2 0 2 0
Wind_Direction
206 229 229 235 252 282 281 265 256 250 184 233 234 218 178 177 188 186 186 188 189 192 187 185 189 190 189 189 190 192 194 188 192 194 198 198 201 206 205 209 203 207 214 207
212 231 243 259 251 249 251 252 243 202 180 248 250 240 201 192 202 199 195 195 196 192 185 184 189 190 191 191 193 194 196 194 198 198 204 207 211 212 208 214 197 208 211 212
229 239 221 226 228 236 244 255 260 262 222 216 238 232 208 194 202 201 205 203 200 198 192 187 190 193 193 193 195 197 197 197 202 199 202 199 200 215 205 204 202 208 211 214
235 226 219 232 236 249 246 248 252 247 245 235 239 252 205 194 196 201 205 205 204 200 198 192 192 194 196 195 194 196 196 199 199 201 208 207 209 214 213 209 201 202 210 217
211 215 225 238 246 252 265 260 242 245 251 257 233 253 224 194 208 207 204 206 207 202 199 197 196 194 197 194 192 193 194 198 199 204 206 211 218 218 215 211 206 218 210 216
239 225 244 252 249 237 211 203 212 236 244 245 240 251 244 216 221 213 202 202 204 202 200 199 198 192 194 193 193 192 192 198 200 204 207 212 219 220 222 217 214 214 213 213
219 218 217 235 227 200 212 227 228 226 226 239 210 246 259 235 230 224 209 201 200 200 199 196 195 191 193 193 194 194 192 197 200 202 207 209 215 216 219 222 219 226 224 214
219 214 203 213 239 231 224 242 251 261 261 244 197 238 230 190 212 222 219 199 198 200 198 196 194 194 195 195 195 195 193 197 199 202 205 209 211 215 217 217 228 223 231 228
244 224 185 205 228 243 224 235 258 263 266 270 242 233 203 199 211 203 196 184 194 201 200 199 196 197 196 198 197 197 195 198 201 200 199 204 207 215 218 212 218 226 224 222
264 250 212 192 210 222 256 247 243 251 257 260 245 239 230 202 218 203 198 202 198 199 199 199 198 196 196 197 197 200 197 198 201 201 200 198 202 207 212 215 214 220 219 217
257 249 222 203 224 224 207 222 239 251 262 265 262 245 89 213 224 225 220 195 191 197 196 189 192 194 194 194 193 196 195 195 198 201 201 202 200 203 206 211 214 212 214 212
250 256 246 228 219 271 247 239 234 244 246 252 270 259 103 175 251 248 249 181 197 190 191 184 180 186 192 194 193 193 194 197 198 196 196 199 200 201 205 207 210 211 212 215
261 250 239 222 203 206 229 234 240 250 253 251 255 243 130 143 216 238 326 303 200 184 183 179 176 185 190 192 196 195 196 196 192 189 193 196 200 202 206 207 209 210 213 218
269 258 261 268 276 235 228 229 232 242 247 250 252 264 235 235 256 254 242 240 212 186 189 193 185 189 192 195 196 200 200 196 193 190 192 197 203 204 205 203 207 209 211 216
268 254 255 269 277 266 254 248 238 242 255 263 264 264 268 265 274 276 249 218 207 200 183 189 196 191 194 196 196 200 200 193 193 193 197 199 200 199 199 200 205 209 211 213
271 270 265 257 255 257 256 252 247 244 250 254 259 260 273 286 265 260 250 234 222 218 212 196 182 171 173 191 197 197 198 191 190 198 201 193 193 197 199 200 203 210 214 215
254 256 262 260 255 256 247 243 244 243 245 253 256 265 268 253 265 271 275 256 246 249 250 226 197 175 172 182 185 192 195 193 194 199 199 196 199 200 203 204 206 212 214 213
249 257 258 262 255 248 255 265 255 249 246 249 260 267 269 272 271 274 292 291 278 273 271 248 224 165 161 161 159 180 181 187 196 203 208 207 207 205 203 206 210 212 216 216
236 238 253 255 250 251 241 223 236 248 247 253 261 264 272 272 243 218 18 339 311 311 322 309 213 114 73 49 85 123 178 193 211 212 216 217 216 216 212 212 213 211 211 218
212 221 242 244 253 255 255 144 267 257 244 237 261 263 268 251 245 220 29 321 332 14 31 35 54 82 89 46 42 130 200 203 230 239 233 229 225 224 223 220 215 215 216 222
208 215 233 244 248 252 322 60 227 239 274 9 295 283 269 252 307 27 27 353 35 48 42 31 17 10 40 26 28 266 292 274 264 258 245 236 230 225 221 221 219 219 222 224
249 240 231 242 248 247 71 199 255 329 352 328 311 295 288 294 332 342 337 359 14 15 16 359 332 337 29 192 215 232 256 272 270 258 246 243 238 237 222 214 216 221 226 224
249 273 278 260 275 21 351 303 311 310 302 302 299 303 289 274 277 289 296 302 311 327 333 315 299 287 270 245 238 248 267 265 256 253 244 240 237 235 228 223 218 218 221 232
238 257 266 266 259 279 287 286 285 290 291 293 294 285 277 276 282 287 289 291 290 301 299 289 282 284 288 282 279 274 275 267 246 243 244 237 227 225 226 236 232 231 231 231
274 261 259 261 273 282 270 278 281 287 285 283 280 274 273 275 278 283 286 287 290 294 298 293 291 289 289 288 290 295 298 283 256 252 253 253 244 232 243 251 271 260 263 263
250 254 260 270 288 287 290 292 292 284 281 280 279 275 272 267 273 278 281 283 282 283 288 283 285 289 292 285 283 296 305 294 276 261 254 258 256 236 235 233 240 342 259 187